MCBH Kaneohe Bay, HI

4:47 PM HST on January 16, 2017 (GMT -1000)
Kaneohe Bay Marine Corps Air Facility

Weather History for PHNG - February, 2012

Change the Weather History Date:

Wednesday, February 29, 2012

  Actual Average Record
Temperature  
Mean Temperature 54 °F -  
Max Temperature 77 °F 75 °F 79 °F (2004)
Min Temperature 32 °F 67 °F 32 °F (2012)
Degree Days  
Heating Degree Days 10    
Growing Degree Days 4 (Base 50)    
Moisture  
Dew Point 65 °F    
Average Humidity 71    
Maximum Humidity 78    
Minimum Humidity 64    
Precipitation  
Precipitation 0.00 in - - ()
Sea Level Pressure  
Sea Level Pressure 30.06 in    
Wind  
Wind Speed 11 mph (East)    
Max Wind Speed 17 mph    
Max Gust Speed 26 mph    
Visibility 10 miles    
Events      
Averages and records for this station are not official NWS values.
T = Trace of Precipitation, MM = Missing Value Source: NWS Daily Summary

Daily Weather History Graph

Daily Weather History Graph

Search for Another Location

Airport or City:

Trip Planner

Search our weather history database for the weather conditions in past years. The results will help you decide how hot, cold, wet, or windy it might be!

Date:

Astronomy

Feb. 29, 2012 Rise Set
Actual Time 6:51 AM HST 6:35 PM HST
Civil Twilight 6:29 AM HST 6:57 PM HST
Nautical Twilight 6:03 AM HST 7:23 PM HST
Astronomical Twilight 5:37 AM HST 7:49 PM HST
Moon 11:48 AM HST (2/29) 12:36 AM HST (2/29)
Length of Visible Light 12h 28m
Length of Day
11h 43m
Waxing Crescent, 49% of the Moon is Illuminated
Feb 29
Waxing Crescent
Feb 29
First Quarter
Mar 7
Full
Mar 14
Last Quarter
Mar 22
New

Hourly Weather History & Observations

Time (HST) Temp. Windchill Dew Point Humidity Pressure Visibility Wind Dir Wind Speed Gust Speed Precip Events Conditions
12:57 AM 73.0 °F - 64.9 °F 76% 30.07 in 10.0 mi East 13.8 mph 20.7 mph N/A   Overcast
1:57 AM 72.0 °F - 64.9 °F 78% 30.05 in 10.0 mi East 11.5 mph 20.7 mph N/A   Overcast
2:57 AM - - - N/A% 30.04 in 10.0 mi Variable 6.9 mph 21.9 mph N/A   Overcast
3:57 AM - - - N/A% 30.02 in 10.0 mi East 12.7 mph 23.0 mph N/A   Overcast
4:30 AM 73.4 °F - 66.2 °F 78% 30.04 in 10.0 mi ESE 10.4 mph 19.6 mph N/A   Overcast
4:39 AM - - - N/A% 30.04 in 10.0 mi ESE 9.2 mph - N/A   Overcast
4:57 AM 73.9 °F - 66.0 °F 76% 30.03 in 10.0 mi East 11.5 mph 17.3 mph N/A   Overcast
5:57 AM 73.9 °F - 64.9 °F 73% 30.04 in 10.0 mi East 9.2 mph 23.0 mph N/A   Overcast
6:57 AM - - - N/A% 30.05 in 10.0 mi ESE 12.7 mph 20.7 mph N/A   Overcast
7:57 AM 73.9 °F - 64.9 °F 73% 30.06 in 10.0 mi East 9.2 mph 19.6 mph N/A   Overcast
8:57 AM 75.0 °F - 64.9 °F 71% 30.08 in 10.0 mi East 12.7 mph 20.7 mph N/A   Overcast
9:57 AM - - - N/A% 30.09 in 10.0 mi East 11.5 mph 21.9 mph N/A   Overcast
10:57 AM 76.1 °F - 66.7 °F 73% 30.09 in 10.0 mi East 11.5 mph 21.9 mph N/A   Overcast
11:20 AM - - - N/A% 30.10 in 10.0 mi East 10.4 mph 21.9 mph N/A   Overcast
11:31 AM 77.0 °F - 64.4 °F 65% 30.10 in 10.0 mi East 11.5 mph 23.0 mph N/A   Overcast
11:44 AM - - - N/A% - 10.0 mi East 11.5 mph 23.0 mph N/A   Mostly Cloudy
11:57 AM 77.0 °F - 66.0 °F 69% 30.07 in 10.0 mi East 15.0 mph 25.3 mph N/A   Overcast
12:22 PM - - - N/A% - 10.0 mi East 15.0 mph 26.5 mph N/A   Mostly Cloudy
12:57 PM - - - N/A% - 10.0 mi ESE 17.3 mph 26.5 mph N/A   Overcast
1:57 PM 77.0 °F - 64.0 °F 64% 30.04 in 10.0 mi East 15.0 mph 23.0 mph N/A   Mostly Cloudy
2:57 PM 76.8 °F - 63.9 °F 64% 30.02 in 10.0 mi East 12.7 mph 20.7 mph N/A   Mostly Cloudy
3:57 PM 77.4 °F - 64.4 °F 64% 30.02 in 10.0 mi East 12.7 mph 20.7 mph N/A   Mostly Cloudy
4:57 PM 76.6 °F - - N/A% 30.04 in 10.0 mi East 9.2 mph 16.1 mph N/A   Mostly Cloudy
5:57 PM 75.0 °F - 62.2 °F 64% 30.05 in 10.0 mi East 6.9 mph 16.1 mph N/A   Mostly Cloudy
6:10 PM - - - N/A% 30.06 in 10.0 mi East 11.5 mph 16.1 mph N/A   Overcast
6:21 PM 32.0 °F 23.6 °F - N/A% 30.06 in 6.2 mi East 10.4 mph 18.4 mph N/A   Overcast
6:31 PM 32.0 °F 24.8 °F - N/A% 30.07 in 10.0 mi East 8.1 mph - N/A   Overcast
7:55 PM 74.3 °F - 64.4 °F 71% 30.06 in 7.0 mi East 9.2 mph 16.1 mph N/A   Mostly Cloudy
8:57 PM 74.1 °F - 64.4 °F 72% 30.09 in 10.0 mi East 8.1 mph - N/A   Mostly Cloudy
9:04 PM 32.0 °F 23.6 °F - N/A% 30.10 in 10.0 mi East 10.4 mph 20.7 mph N/A   Overcast
9:23 PM - - - N/A% 30.10 in 10.0 mi East 10.4 mph 19.6 mph N/A   Mostly Cloudy
9:57 PM 74.3 °F - 63.1 °F 68% 30.09 in 10.0 mi East 10.4 mph - N/A   Mostly Cloudy
10:57 PM 74.1 °F - 66.0 °F 76% 30.08 in 10.0 mi East 13.8 mph 24.2 mph N/A   Mostly Cloudy
11:57 PM 73.9 °F - 65.1 °F 74% 30.08 in 10.0 mi ESE 11.5 mph 19.6 mph N/A   Overcast